QPF
0.00 0.00 0.00 0.00 0.00 0.00 0.00 0.00 0.00 0.00 0.00 0.00 0.00 0.00 0.00 0.00 0.00 0.00 0.00 0.00 0.00 0.00 0.00 0.00 0.00 0.00 0.00 0.00 0.00 0.00 0.00 0.00 0.00 0.00 0.00 0.00 0.00 0.00 0.00 0.00 0.00 0.00 0.00 0.00
0.00 0.00 0.00 0.00 0.00 0.00 0.00 0.00 0.00 0.00 0.00 0.00 0.00 0.00 0.00 0.00 0.00 0.00 0.00 0.00 0.00 0.00 0.00 0.00 0.00 0.00 0.00 0.00 0.00 0.00 0.00 0.00 0.00 0.00 0.00 0.00 0.00 0.00 0.00 0.00 0.00 0.00 0.00 0.00
0.00 0.00 0.00 0.00 0.00 0.00 0.00 0.00 0.00 0.00 0.00 0.00 0.00 0.00 0.00 0.00 0.00 0.00 0.00 0.00 0.00 0.00 0.00 0.00 0.00 0.00 0.00 0.00 0.00 0.00 0.00 0.00 0.00 0.00 0.00 0.00 0.00 0.00 0.00 0.00 0.00 0.00 0.00 0.00
0.00 0.00 0.00 0.00 0.00 0.00 0.00 0.00 0.00 0.00 0.00 0.00 0.00 0.00 0.00 0.00 0.00 0.00 0.00 0.00 0.00 0.00 0.00 0.00 0.00 0.00 0.00 0.00 0.00 0.00 0.00 0.00 0.00 0.00 0.00 0.00 0.00 0.00 0.00 0.00 0.00 0.00 0.00 0.00
0.00 0.00 0.00 0.00 0.00 0.00 0.00 0.00 0.00 0.00 0.00 0.00 0.00 0.00 0.00 0.00 0.00 0.00 0.00 0.00 0.00 0.00 0.00 0.00 0.00 0.00 0.00 0.00 0.00 0.00 0.00 0.00 0.00 0.00 0.00 0.00 0.00 0.00 0.00 0.00 0.00 0.00 0.00 0.00
0.00 0.00 0.00 0.00 0.00 0.00 0.00 0.00 0.00 0.00 0.00 0.00 0.00 0.00 0.00 0.00 0.00 0.00 0.00 0.00 0.00 0.00 0.00 0.00 0.00 0.00 0.00 0.00 0.00 0.00 0.00 0.00 0.00 0.00 0.00 0.00 0.00 0.00 0.00 0.00 0.00 0.00 0.00 0.00
0.00 0.00 0.00 0.00 0.00 0.00 0.00 0.00 0.00 0.00 0.00 0.00 0.00 0.00 0.00 0.00 0.00 0.00 0.00 0.00 0.00 0.00 0.00 0.00 0.00 0.00 0.00 0.00 0.00 0.00 0.00 0.00 0.00 0.00 0.00 0.00 0.00 0.00 0.00 0.00 0.00 0.00 0.00 0.00
0.00 0.00 0.00 0.00 0.00 0.00 0.00 0.00 0.00 0.00 0.00 0.00 0.00 0.00 0.00 0.00 0.00 0.00 0.00 0.00 0.00 0.00 0.00 0.00 0.00 0.00 0.00 0.00 0.00 0.00 0.00 0.00 0.00 0.00 0.00 0.00 0.00 0.00 0.00 0.00 0.00 0.00 0.00 0.00
0.00 0.00 0.00 0.00 0.00 0.00 0.00 0.00 0.00 0.00 0.00 0.00 0.00 0.00 0.00 0.00 0.00 0.00 0.00 0.00 0.00 0.00 0.00 0.00 0.00 0.00 0.00 0.00 0.00 0.00 0.00 0.00 0.00 0.00 0.00 0.00 0.00 0.00 0.00 0.00 0.00 0.00 0.00 0.00
0.00 0.00 0.00 0.00 0.00 0.00 0.00 0.00 0.00 0.01 0.02 0.01 0.00 0.00 0.00 0.00 0.00 0.00 0.00 0.00 0.00 0.00 0.00 0.00 0.00 0.00 0.00 0.00 0.00 0.00 0.00 0.00 0.00 0.00 0.00 0.00 0.00 0.00 0.00 0.00 0.00 0.00 0.00 0.00
0.00 0.00 0.00 0.00 0.00 0.00 0.00 0.00 0.01 0.03 0.03 0.02 0.00 0.00 0.00 0.00 0.00 0.00 0.00 0.00 0.00 0.00 0.00 0.00 0.00 0.00 0.00 0.00 0.00 0.00 0.00 0.00 0.00 0.00 0.00 0.00 0.00 0.00 0.00 0.00 0.00 0.00 0.00 0.00
0.00 0.00 0.00 0.00 0.00 0.00 0.00 0.00 0.00 0.00 0.01 0.01 0.00 0.00 0.00 0.00 0.00 0.00 0.00 0.00 0.00 0.00 0.00 0.00 0.00 0.00 0.00 0.00 0.00 0.00 0.00 0.00 0.00 0.00 0.00 0.00 0.00 0.00 0.00 0.00 0.00 0.00 0.00 0.01
0.00 0.00 0.00 0.00 0.00 0.00 0.00 0.00 0.00 0.00 0.00 0.00 0.01 0.00 0.00 0.00 0.00 0.00 0.00 0.00 0.00 0.00 0.00 0.01 0.02 0.02 0.04 0.01 0.00 0.00 0.00 0.00 0.00 0.00 0.00 0.00 0.00 0.00 0.00 0.00 0.00 0.00 0.01 0.04
0.00 0.00 0.00 0.00 0.00 0.00 0.00 0.00 0.00 0.02 0.01 0.00 0.00 0.00 0.00 0.00 0.00 0.00 0.00 0.00 0.00 0.00 0.01 0.01 0.02 0.04 0.06 0.03 0.01 0.00 0.00 0.00 0.00 0.00 0.00 0.00 0.00 0.00 0.00 0.00 0.00 0.01 0.03 0.05
0.00 0.00 0.00 0.00 0.00 0.00 0.00 0.00 0.00 0.00 0.00 0.00 0.00 0.00 0.00 0.00 0.00 0.00 0.00 0.01 0.01 0.01 0.01 0.03 0.03 0.05 0.07 0.05 0.04 0.02 0.00 0.00 0.00 0.00 0.00 0.00 0.00 0.00 0.00 0.00 0.00 0.06 0.06 0.07
0.00 0.00 0.00 0.00 0.00 0.00 0.00 0.00 0.00 0.00 0.00 0.00 0.00 0.00 0.00 0.00 0.00 0.00 0.00 0.00 0.00 0.01 0.01 0.00 0.00 0.03 0.05 0.03 0.06 0.12 0.09 0.02 0.00 0.00 0.00 0.01 0.02 0.00 0.00 0.00 0.01 0.04 0.03 0.01
0.00 0.00 0.00 0.00 0.00 0.00 0.00 0.00 0.00 0.00 0.00 0.00 0.00 0.00 0.00 0.00 0.00 0.00 0.00 0.00 0.02 0.00 0.00 0.00 0.00 0.00 0.01 0.03 0.03 0.08 0.11 0.12 0.06 0.03 0.02 0.03 0.02 0.02 0.01 0.02 0.01 0.04 0.02 0.00
0.00 0.00 0.00 0.00 0.00 0.00 0.00 0.00 0.00 0.00 0.00 0.00 0.00 0.00 0.00 0.00 0.00 0.00 0.00 0.00 0.00 0.00 0.00 0.00 0.00 0.00 0.00 0.01 0.00 0.02 0.12 0.19 0.12 0.08 0.09 0.13 0.07 0.03 0.01 0.01 0.01 0.03 0.02 0.00
0.00 0.00 0.00 0.00 0.00 0.00 0.00 0.00 0.00 0.00 0.00 0.00 0.00 0.00 0.00 0.00 0.00 0.00 0.00 0.00 0.00 0.00 0.00 0.00 0.00 0.00 0.00 0.00 0.00 0.02 0.12 0.30 0.27 0.21 0.10 0.12 0.10 0.01 0.01 0.01 0.00 0.00 0.00 0.00
0.00 0.00 0.00 0.00 0.00 0.00 0.00 0.01 0.00 0.00 0.00 0.00 0.00 0.00 0.00 0.00 0.00 0.00 0.00 0.00 0.00 0.00 0.00 0.00 0.00 0.00 0.00 0.00 0.00 0.00 0.05 0.19 0.35 0.32 0.19 0.16 0.07 0.01 0.00 0.00 0.00 0.00 0.00 0.00
0.00 0.00 0.01 0.01 0.01 0.00 0.00 0.01 0.01 0.00 0.00 0.00 0.00 0.00 0.00 0.00 0.00 0.00 0.00 0.00 0.00 0.00 0.00 0.00 0.00 0.00 0.00 0.00 0.00 0.00 0.02 0.08 0.24 0.30 0.20 0.08 0.01 0.00 0.00 0.00 0.00 0.00 0.00 0.00
0.00 0.00 0.00 0.00 0.00 0.00 0.01 0.02 0.02 0.00 0.00 0.00 0.00 0.00 0.00 0.00 0.00 0.00 0.00 0.00 0.00 0.00 0.00 0.00 0.00 0.00 0.00 0.00 0.00 0.00 0.01 0.09 0.20 0.20 0.12 0.01 0.00 0.00 0.00 0.00 0.00 0.00 0.00 0.00
0.00 0.01 0.02 0.01 0.00 0.00 0.00 0.00 0.00 0.00 0.00 0.00 0.00 0.00 0.00 0.00 0.00 0.00 0.00 0.00 0.00 0.00 0.00 0.00 0.00 0.00 0.00 0.00 0.04 0.02 0.04 0.11 0.23 0.15 0.04 0.00 0.00 0.00 0.00 0.00 0.00 0.00 0.00 0.00
0.00 0.00 0.00 0.00 0.00 0.00 0.00 0.00 0.00 0.00 0.00 0.00 0.00 0.00 0.00 0.00 0.00 0.00 0.00 0.00 0.00 0.00 0.00 0.00 0.00 0.00 0.00 0.01 0.02 0.05 0.11 0.11 0.15 0.12 0.01 0.00 0.00 0.00 0.00 0.00 0.00 0.00 0.00 0.00
0.00 0.00 0.00 0.00 0.00 0.00 0.00 0.00 0.00 0.00 0.00 0.00 0.00 0.00 0.00 0.00 0.00 0.00 0.00 0.00 0.00 0.00 0.00 0.00 0.00 0.00 0.00 0.00 0.00 0.06 0.11 0.11 0.14 0.13 0.03 0.00 0.00 0.00 0.00 0.00 0.00 0.00 0.00 0.00
0.00 0.00 0.00 0.00 0.00 0.01 0.00 0.00 0.01 0.01 0.00 0.00 0.00 0.00 0.00 0.00 0.00 0.00 0.00 0.00 0.00 0.00 0.00 0.00 0.00 0.00 0.00 0.00 0.01 0.07 0.10 0.08 0.10 0.11 0.05 0.00 0.00 0.00 0.00 0.00 0.00 0.00 0.00 0.00
MSLP
1010.19 1010.83 1011.30 1011.39 1011.58 1011.54 1011.71 1011.56 1011.13 1010.44 1009.52 1008.91 1007.89 1006.40 1006.14 1005.84 1005.50 1005.23 1004.85 1004.36 1003.80 1002.56 1001.02 1002.17 1001.98 1001.63 1001.94 1001.62 1001.25 1000.68 1001.19 1001.32 1001.85 1001.93 1002.64 1002.98 1003.07 1003.39 1003.74 1003.71 1003.67 1004.10 1004.71 1005.10
1010.90 1011.10 1010.73 1010.86 1010.89 1011.20 1011.38 1011.40 1011.02 1010.41 1009.95 1009.60 1008.66 1006.78 1006.44 1005.88 1005.38 1005.19 1005.09 1004.70 1004.11 1003.67 1002.50 1000.22 1001.52 1001.75 1001.47 1001.62 1001.67 1001.17 1000.76 1000.44 1000.84 1001.39 1001.65 1001.27 1001.31 1002.07 1002.27 1002.69 1003.06 1003.50 1003.86 1004.32
1011.12 1010.71 1010.46 1010.64 1010.63 1010.90 1011.15 1011.30 1011.09 1011.00 1010.39 1009.83 1009.25 1006.65 1006.54 1005.80 1005.38 1005.11 1005.00 1004.77 1004.54 1004.16 1003.47 1002.63 1001.85 1001.41 1001.06 1000.71 1001.29 1001.07 1000.50 1000.00 999.57 1000.01 1001.31 1001.82 1001.58 1001.87 1002.27 1002.45 1002.49 1002.60 1003.04 1003.56
1010.84 1010.43 1010.44 1010.50 1010.70 1011.00 1011.15 1011.01 1011.10 1011.14 1011.19 1011.18 1010.16 1007.03 1006.58 1006.28 1005.79 1005.43 1005.21 1005.05 1004.59 1004.09 1003.66 1003.25 1002.49 1001.49 1000.94 1000.46 1000.09 1000.10 1000.10 999.49 999.08 999.07 1000.07 1000.95 1000.55 1000.81 1000.96 1001.07 1001.48 1002.14 1002.62 1002.91
1010.48 1010.33 1010.28 1010.41 1010.42 1010.75 1010.93 1010.89 1011.24 1011.50 1011.69 1011.59 1011.05 1010.22 1005.84 1005.92 1005.99 1005.80 1005.30 1005.19 1005.15 1004.83 1004.27 1003.68 1003.04 1001.98 1000.97 1000.07 999.65 999.15 998.97 998.71 998.49 998.56 998.73 999.72 1000.29 1000.65 1000.86 1001.28 1001.67 1002.28 1002.34 1002.66
1010.38 1010.03 1009.94 1009.88 1010.07 1010.41 1010.65 1011.31 1011.81 1012.05 1012.48 1012.22 1011.02 1010.27 1005.05 1006.02 1005.75 1005.75 1005.63 1005.52 1005.42 1004.88 1003.97 1003.19 1002.52 1001.89 1000.80 1000.06 999.21 998.74 998.40 998.18 998.04 998.04 998.04 998.36 998.97 999.91 1000.73 1001.27 1001.61 1002.15 1002.30 1002.35
1010.88 1010.40 1010.07 1010.11 1010.50 1010.72 1011.42 1012.29 1013.24 1013.45 1013.39 1012.52 1011.16 1010.58 1006.72 1006.26 1005.85 1005.72 1005.87 1005.63 1005.14 1004.72 1004.24 1003.12 1002.08 1001.47 1000.57 999.75 998.90 998.33 997.93 997.26 997.21 997.21 997.39 997.79 998.07 998.74 999.74 1000.33 1000.76 1001.54 1001.88 1002.04
1011.77 1011.32 1010.59 1010.57 1010.85 1011.38 1011.79 1012.78 1014.00 1014.08 1013.99 1012.92 1011.57 1009.99 1006.81 1005.94 1005.70 1005.60 1005.71 1005.50 1005.07 1004.73 1004.16 1003.44 1002.23 1001.37 1000.25 999.23 998.25 997.49 997.03 996.49 996.60 996.62 996.63 996.90 997.42 998.05 998.99 999.52 1000.12 1000.55 1000.88 1001.13
1012.69 1011.91 1011.00 1010.77 1010.87 1011.49 1011.85 1012.62 1013.01 1013.92 1013.93 1013.41 1011.50 1009.15 1007.29 1005.73 1005.68 1005.47 1005.34 1005.21 1004.84 1004.34 1003.60 1002.87 1002.17 1001.01 999.88 998.80 997.67 996.79 995.69 995.35 995.32 995.36 995.95 996.17 996.57 997.36 998.25 998.76 999.61 1000.01 1000.45 1000.78
1012.70 1012.61 1011.64 1011.30 1011.17 1011.09 1011.47 1012.15 1013.32 1014.44 1014.35 1013.22 1011.14 1009.37 1007.49 1006.20 1005.57 1005.74 1005.22 1004.92 1004.51 1003.94 1003.16 1002.08 1001.32 1000.38 999.15 998.07 996.67 995.44 994.34 993.81 993.90 994.43 995.05 995.29 995.64 996.98 997.59 998.26 999.15 999.61 1000.15 1000.50
1012.82 1013.40 1012.64 1012.01 1011.60 1011.45 1011.84 1012.33 1013.20 1014.03 1013.96 1013.05 1011.21 1008.53 1006.50 1006.10 1005.86 1005.36 1005.08 1004.77 1004.64 1003.69 1002.65 1001.52 1000.40 999.76 998.61 997.16 995.93 994.02 992.64 992.38 992.76 993.40 994.25 994.34 995.55 996.40 996.98 997.82 998.55 999.09 999.66 999.96
1012.93 1013.47 1013.38 1012.30 1011.02 1011.25 1011.61 1012.18 1012.88 1013.62 1013.41 1012.56 1011.13 1007.35 1006.06 1005.70 1005.25 1004.99 1004.77 1004.60 1004.04 1003.21 1002.38 1001.12 1000.00 999.06 997.47 995.90 994.50 992.85 991.99 991.81 991.88 992.47 993.34 994.30 995.10 995.89 996.74 997.52 998.01 998.66 999.10 999.66
1012.95 1013.57 1013.68 1012.31 1011.62 1011.32 1011.36 1011.89 1012.24 1012.59 1012.76 1011.78 1010.93 1006.87 1005.54 1005.54 1005.18 1004.57 1004.53 1004.11 1003.88 1002.87 1001.53 1000.11 999.51 997.89 995.75 995.36 993.49 992.05 991.25 991.20 991.36 992.08 993.14 994.01 994.75 995.49 996.45 997.14 997.56 998.22 998.92 999.51
1012.60 1012.95 1013.44 1012.92 1012.08 1011.92 1011.54 1011.31 1011.42 1011.73 1011.35 1010.13 1008.74 1006.41 1005.48 1005.17 1004.81 1003.97 1003.87 1003.69 1003.46 1002.83 1001.18 1000.24 998.47 996.81 996.66 995.19 993.05 991.69 990.88 991.11 991.30 991.54 992.67 993.51 994.34 995.22 995.92 996.56 997.35 998.03 998.52 999.13
1012.30 1012.68 1012.86 1012.41 1011.91 1011.38 1010.67 1010.07 1009.67 1009.77 1009.22 1009.14 1007.48 1006.52 1005.01 1004.73 1004.24 1003.75 1003.49 1003.23 1002.79 1001.95 1000.72 1000.35 998.71 997.66 997.03 994.72 993.11 992.21 990.89 991.00 991.19 991.70 992.23 993.20 993.95 994.90 995.92 996.69 997.37 997.57 998.35 999.16
1012.41 1012.51 1012.48 1012.02 1011.51 1010.60 1009.53 1008.38 1007.81 1007.49 1007.33 1007.11 1006.36 1005.33 1004.49 1004.32 1003.93 1003.68 1003.24 1002.87 1002.47 1002.07 1000.71 1000.82 1000.45 997.97 995.57 994.88 993.97 993.00 991.76 991.45 991.76 992.09 992.60 993.15 994.28 995.01 995.72 996.50 997.05 997.85 998.59 999.42
1012.59 1012.67 1012.79 1011.25 1010.74 1010.15 1008.47 1006.76 1006.36 1005.88 1005.59 1005.58 1005.38 1004.57 1004.41 1004.32 1003.84 1003.87 1003.26 1002.60 1002.39 1001.97 1001.00 1000.43 1000.02 997.68 996.01 995.10 994.45 993.68 992.44 991.80 991.83 992.30 992.90 993.43 993.95 994.87 995.52 996.09 997.20 998.01 998.85 999.63
1011.79 1012.33 1012.40 1011.31 1010.90 1009.70 1006.80 1005.89 1005.60 1005.41 1004.91 1004.85 1004.59 1004.31 1004.25 1004.16 1003.60 1003.77 1003.04 1002.32 1001.89 1001.48 1000.85 1000.05 999.02 997.58 996.77 995.66 994.77 993.95 992.83 992.32 992.54 992.55 992.88 993.50 993.93 994.67 995.31 996.31 997.42 998.43 999.19 999.98
1010.66 1011.46 1011.47 1011.17 1010.70 1008.67 1006.93 1005.92 1005.52 1005.55 1004.55 1004.31 1004.17 1003.73 1003.72 1003.63 1002.90 1002.61 1002.20 1002.03 1001.83 1001.28 1000.54 1000.12 999.61 998.51 997.49 996.25 994.99 994.23 993.56 992.76 993.06 993.18 993.12 993.47 993.81 994.61 995.66 996.51 997.95 998.77 999.57 1000.31
1010.21 1010.73 1011.10 1010.78 1010.37 1008.81 1006.92 1006.01 1005.86 1006.16 1005.24 1003.64 1003.80 1003.48 1003.19 1003.56 1002.86 1001.91 1001.53 1001.53 1001.08 1000.70 1000.45 999.94 999.00 998.49 997.44 996.24 995.37 994.72 993.99 993.31 993.74 993.60 993.36 993.65 993.76 994.93 995.82 996.97 997.97 998.95 999.67 1000.37
1010.29 1010.58 1010.55 1010.27 1009.57 1008.01 1006.24 1006.10 1006.24 1006.50 1004.75 1003.71 1003.60 1003.43 1003.02 1003.07 1002.77 1001.32 1001.19 1000.53 1000.65 1000.48 1000.22 999.49 998.18 998.05 997.52 996.33 994.72 993.83 993.68 993.40 993.77 993.78 993.47 993.75 994.26 995.01 996.14 997.29 998.20 999.13 999.94 1000.72
1010.00 1010.13 1010.16 1009.61 1008.75 1007.38 1005.98 1006.50 1006.31 1004.72 1004.03 1003.87 1003.39 1002.88 1002.76 1001.90 1001.49 1001.34 1000.92 1000.48 999.90 999.69 999.55 999.51 998.76 998.03 997.02 995.98 995.01 994.28 993.31 993.00 993.84 994.49 992.76 993.76 994.64 995.50 996.66 997.50 998.53 999.29 1000.11 1001.02
1009.76 1009.62 1009.71 1009.37 1007.28 1006.27 1005.80 1005.27 1004.46 1004.13 1003.58 1003.17 1002.99 1002.37 1002.16 1001.81 1001.20 1000.78 1000.48 1000.02 999.74 999.78 999.49 999.16 998.44 997.79 996.91 996.12 994.84 994.24 994.18 993.96 994.36 991.47 993.74 993.72 994.88 996.07 996.91 997.82 998.97 999.89 1000.49 1001.32
1009.55 1009.00 1008.97 1008.30 1006.22 1005.86 1005.37 1004.55 1004.10 1003.67 1003.06 1002.43 1001.79 1001.46 1001.49 1001.15 1000.77 1000.29 1000.10 999.69 999.36 999.45 999.40 999.31 998.46 997.50 996.68 995.78 995.30 994.57 993.72 993.86 994.40 994.31 994.08 994.37 995.57 996.79 997.46 998.26 999.36 1000.16 1000.90 1001.57
1009.66 1009.09 1007.97 1007.08 1006.02 1005.34 1004.40 1003.94 1003.36 1002.90 1002.40 1001.88 1001.36 1001.10 1000.90 1000.76 1000.34 999.98 998.98 998.81 998.91 998.78 998.98 998.77 997.93 997.10 996.20 995.40 995.17 994.37 993.76 994.82 994.36 994.31 994.32 995.26 996.25 997.23 998.22 999.42 1000.25 1000.55 1000.93 1001.16
1008.48 1007.95 1007.77 1006.49 1005.82 1005.24 1004.07 1003.10 1002.49 1002.24 1001.93 1001.58 1001.39 1000.94 1000.71 1000.77 999.97 999.32 998.38 998.15 998.36 998.19 998.09 997.74 997.28 996.43 995.44 994.51 994.24 993.97 994.42 994.41 994.17 994.51 994.86 995.60 996.59 997.85 998.86 999.80 1000.83 1001.28 1001.49 1001.69
Thickness
5598 5587 5584 5590 5588 5596 5595 5593 5592 5604 5617 5617 5625 5644 5657 5665 5668 5671 5680 5691 5701 5719 5745 5738 5746 5755 5753 5761 5768 5778 5781 5787 5787 5789 5786 5788 5793 5796 5795 5798 5801 5797 5793 5791
5578 5575 5590 5595 5595 5591 5588 5585 5587 5596 5607 5606 5612 5634 5646 5655 5660 5663 5668 5677 5688 5696 5711 5743 5734 5740 5749 5749 5753 5763 5769 5782 5784 5783 5786 5794 5800 5797 5798 5801 5799 5797 5794 5790
5570 5579 5587 5586 5586 5582 5578 5576 5579 5579 5592 5600 5598 5624 5630 5644 5650 5658 5661 5666 5672 5679 5691 5706 5721 5730 5738 5748 5745 5756 5764 5773 5783 5785 5779 5780 5787 5789 5790 5793 5795 5794 5792 5788
5571 5579 5580 5573 5574 5571 5563 5577 5577 5575 5569 5560 5589 5591 5618 5626 5629 5637 5643 5646 5657 5670 5678 5688 5702 5716 5726 5738 5749 5750 5758 5768 5775 5781 5777 5774 5783 5786 5793 5796 5794 5787 5786 5785
5566 5573 5570 5567 5569 5568 5561 5571 5568 5566 5558 5553 5564 5548 5616 5619 5615 5617 5625 5631 5637 5645 5657 5670 5682 5699 5715 5730 5740 5750 5756 5763 5770 5774 5779 5778 5774 5781 5784 5784 5783 5777 5779 5778
5569 5575 5573 5569 5569 5565 5567 5558 5550 5544 5534 5524 5548 5542 5615 5601 5604 5604 5609 5613 5618 5629 5646 5661 5675 5687 5703 5716 5730 5739 5748 5756 5764 5771 5775 5778 5780 5779 5773 5771 5770 5767 5768 5769
5559 5564 5568 5565 5553 5552 5544 5525 5503 5507 5513 5523 5544 5529 5587 5587 5591 5588 5584 5592 5602 5613 5624 5643 5660 5672 5689 5703 5717 5727 5737 5750 5760 5767 5770 5773 5778 5780 5771 5769 5768 5760 5758 5761
5536 5536 5555 5555 5546 5535 5538 5523 5482 5495 5507 5513 5533 5518 5560 5577 5570 5572 5573 5577 5588 5596 5607 5621 5640 5656 5677 5693 5710 5723 5732 5745 5753 5760 5767 5774 5777 5775 5769 5767 5764 5760 5760 5760
5508 5530 5552 5549 5546 5535 5528 5518 5519 5501 5500 5470 5497 5529 5546 5570 5562 5561 5564 5569 5571 5579 5593 5610 5624 5642 5661 5678 5699 5717 5733 5746 5752 5758 5762 5768 5775 5769 5766 5764 5757 5755 5753 5753
5526 5513 5537 5539 5539 5535 5526 5524 5503 5454 5458 5476 5502 5511 5529 5550 5559 5553 5556 5556 5560 5566 5576 5598 5613 5627 5646 5669 5693 5714 5735 5749 5755 5758 5761 5767 5772 5765 5761 5759 5750 5748 5747 5746
5522 5506 5522 5528 5523 5518 5515 5505 5501 5474 5483 5491 5492 5513 5539 5546 5547 5549 5549 5550 5550 5558 5565 5582 5599 5609 5632 5660 5684 5712 5738 5752 5756 5757 5757 5765 5762 5759 5757 5752 5747 5745 5743 5742
5517 5497 5495 5517 5533 5526 5516 5506 5494 5459 5487 5473 5482 5519 5546 5541 5542 5544 5542 5545 5545 5549 5555 5567 5577 5591 5626 5657 5681 5707 5727 5742 5753 5756 5757 5755 5756 5753 5748 5744 5744 5742 5738 5733
5512 5494 5494 5516 5525 5520 5517 5507 5495 5482 5474 5479 5482 5522 5541 5534 5538 5542 5534 5535 5531 5536 5549 5562 5568 5591 5623 5645 5674 5703 5721 5738 5745 5747 5746 5747 5748 5746 5742 5741 5740 5736 5730 5728
5513 5497 5503 5500 5510 5494 5502 5507 5499 5477 5481 5494 5501 5521 5535 5536 5535 5541 5534 5530 5529 5525 5544 5550 5567 5588 5605 5628 5661 5693 5715 5725 5734 5740 5739 5739 5738 5739 5739 5737 5733 5728 5726 5724
5494 5488 5489 5503 5509 5508 5507 5507 5508 5499 5501 5487 5512 5513 5531 5532 5531 5535 5533 5527 5525 5529 5541 5543 5564 5583 5598 5627 5657 5679 5705 5716 5725 5727 5730 5730 5733 5732 5730 5727 5724 5725 5723 5720
5489 5493 5505 5501 5508 5509 5512 5519 5519 5517 5515 5511 5516 5519 5527 5526 5528 5530 5529 5526 5524 5526 5533 5533 5536 5575 5608 5624 5646 5665 5686 5700 5707 5712 5715 5719 5719 5722 5722 5720 5719 5719 5716 5712
5478 5479 5485 5500 5509 5503 5509 5523 5525 5525 5524 5523 5515 5525 5523 5518 5523 5521 5522 5523 5520 5524 5531 5536 5547 5578 5602 5619 5634 5648 5671 5689 5698 5701 5704 5709 5714 5715 5716 5718 5715 5713 5709 5706
5482 5484 5485 5496 5482 5485 5527 5532 5531 5527 5529 5523 5520 5521 5521 5520 5523 5517 5518 5521 5525 5531 5534 5541 5554 5577 5593 5611 5627 5644 5664 5682 5688 5696 5702 5706 5710 5710 5713 5712 5708 5703 5702 5698
5491 5488 5486 5486 5477 5503 5522 5523 5523 5518 5526 5527 5520 5524 5523 5522 5523 5523 5526 5524 5525 5530 5536 5543 5553 5567 5585 5605 5626 5640 5655 5670 5678 5686 5695 5700 5706 5706 5705 5706 5699 5697 5693 5689
5485 5490 5484 5477 5479 5459 5501 5516 5513 5504 5502 5527 5520 5518 5520 5515 5515 5527 5529 5527 5530 5535 5537 5545 5560 5570 5584 5604 5619 5633 5650 5662 5665 5676 5687 5693 5700 5700 5700 5697 5695 5690 5689 5685
5489 5483 5482 5483 5477 5482 5510 5508 5503 5491 5506 5521 5517 5515 5514 5513 5513 5529 5527 5533 5534 5536 5539 5550 5570 5574 5583 5600 5623 5639 5647 5657 5662 5671 5682 5686 5691 5696 5695 5691 5689 5685 5680 5676
5470 5480 5474 5480 5481 5483 5507 5492 5485 5504 5503 5506 5509 5513 5513 5520 5520 5519 5523 5532 5540 5541 5546 5552 5562 5573 5589 5603 5619 5632 5647 5650 5654 5651 5674 5683 5687 5689 5687 5685 5681 5679 5674 5669
5465 5470 5470 5469 5477 5495 5495 5497 5500 5497 5505 5506 5499 5506 5505 5507 5512 5517 5523 5532 5538 5539 5544 5554 5566 5577 5591 5601 5620 5632 5635 5630 5638 5654 5665 5683 5682 5680 5682 5679 5674 5670 5667 5662
5479 5481 5467 5471 5501 5491 5489 5497 5499 5497 5497 5503 5503 5496 5499 5501 5504 5513 5523 5533 5540 5539 5543 5549 5564 5578 5590 5602 5610 5621 5628 5634 5633 5649 5665 5676 5675 5672 5674 5674 5670 5665 5661 5657
5469 5470 5472 5477 5488 5490 5498 5496 5496 5495 5495 5493 5494 5491 5491 5493 5501 5511 5531 5537 5541 5545 5545 5553 5569 5583 5597 5609 5611 5617 5630 5628 5643 5654 5665 5667 5667 5666 5665 5658 5658 5662 5660 5658
5472 5471 5472 5483 5486 5483 5488 5496 5493 5487 5485 5482 5476 5480 5485 5486 5498 5512 5527 5536 5541 5548 5553 5565 5575 5591 5606 5617 5616 5625 5629 5639 5650 5654 5662 5666 5663 5658 5657 5655 5650 5644 5644 5644